Regional Weather Roundup
Issued by NWS

Home | Current Version | Previous Version | Text Only | Print | Product List | Glossary On
Versions: 1 2 3 4 5 6 7 8 9 10 11 12 13 14 15 16 17 18 19 20 21 22 23 24 25 26 27 28 29 30 31 32 33 34 35 36 37 38 39 40 41 42 43 44 45 46 47 48 49 50
990
ASUS45 KPSR 221410
RWRAZ

ARIZONA HOURLY REGIONAL WEATHER ROUNDUP
NATIONAL WEATHER SERVICE PHOENIX AZ
700 AM MST SUN APR 22 2018

NOTE: FAIR INDICATES FEW OR NO CLOUDS BELOW 12,000 FEET WITH NO
SIGNIFICANT WEATHER AND/OR OBSTRUCTIONS TO VISIBILITY.

AZZ001>003-036-221500-
NORTHWEST ARIZONA

CITY           SKY/WX    TMP DP  RH WIND       PRES   REMARKS
BULLHEAD CITY  MOSUNNY   68  28  22 CALM      29.90R
KINGMAN        PTSUNNY   58  23  26 CALM      30.03S
$$

AZZ004>008-015-016-018-221500-
NORTH CENTRAL ARIZONA

CITY           SKY/WX    TMP DP  RH WIND       PRES   REMARKS
GRAND CANYON   MOSUNNY   35  24  64 CALM      30.21R
WILLIAMS       MOSUNNY   46  16  29 S6        30.18S
PRESCOTT       SUNNY     47  25  42 S6        30.12R
FLAGSTAFF      MOSUNNY   36  22  56 CALM      30.22R
PAYSON         SUNNY     54  18  24 CALM      30.11S
PAGE           PTSUNNY   56  30  37 CALM      30.13R
$$

AZZ009>014-017-221500-
NORTHEAST ARIZONA

CITY           SKY/WX    TMP DP  RH WIND       PRES   REMARKS
WINSLOW        PTSUNNY   41  25  53 CALM      30.17R
SAINT JOHNS    MOSUNNY   42  33  70 CALM      30.17R
WINDOW ROCK    SUNNY     35  25  66 CALM      30.23R
SHOW LOW       PTSUNNY   45  27  49 CALM      30.19S
$$

AZZ540-542>544-546-548-221500-
GREATER PHOENIX AREA

CITY           SKY/WX    TMP DP  RH WIND       PRES   REMARKS
PHOENIX        MOSUNNY   66  36  32 CALM      29.90R
BUCKEYE        SUNNY     64  23  20 NE5       29.91S
GLENDALE       MOSUNNY   64  34  32 CALM      29.92
LUKE AFB       SUNNY     62  31  30 N6        29.90R
DEER VALLEY    SUNNY     65  25  22 CALM      29.92R
SCOTTSDALE     SUNNY     64  37  36 CALM      29.93R
MESA-FALCON    MOSUNNY   70  30  23 E7        29.93R
MESA-GATEWAY   MOSUNNY   61  28  29 E8        29.93R
CHANDLER       MOSUNNY   63  37  39 CALM      29.92R
$$

AZZ539-553-221500-
SOUTHWEST MARICOPA COUNTY AND PINAL COUNTY

CITY           SKY/WX    TMP DP  RH WIND       PRES   REMARKS
CASA GRANDE    MOSUNNY   62  30  29 NE5       29.93R
GILA BEND      FAIR      65  23  20 SE3       29.89R
$$

AZZ503-504-507>509-221500-
SOUTHEAST ARIZONA

CITY           SKY/WX    TMP DP  RH WIND       PRES   REMARKS
TUCSON         MOSUNNY   62  28  27 SE8       29.99S
DAVIS-MONTHAN  MOSUNNY   63  28  27 SE9       29.97S
RYAN FIELD     SUNNY     59  28  31 CALM      29.99R
NOGALES        MOSUNNY   58  29  33 CALM      30.04R
SIERRA VISTA   PTSUNNY   62  25  25 CALM      30.09S
DOUGLAS        CLOUDY    55  18  23 E8        30.07R
SAFFORD        PTSUNNY   61  27  27 E9        30.02R
$$

AZZ532-221500-
SOUTHWEST ARIZONA

CITY           SKY/WX    TMP DP  RH WIND       PRES   REMARKS
YUMA           MOSUNNY   64  34  32 CALM      29.87R
$$

CAZ041-043-047-048-061-525>527-560>570-221500-
SOUTHERN CALIFORNIA

CITY           SKY/WX    TMP DP  RH WIND       PRES   REMARKS
DOWNTOWN L.A.  CLEAR     58  52  80 CALM      29.93S
L.A. AIRPORT   PTCLDY    58  53  84 E5        29.94S
SAN DIEGO      PTCLDY    59  52  77 CALM      29.95S
BURBANK        CLEAR     58  50  75 CALM      29.94S
ONTARIO        PTCLDY    58  41  53 CALM      29.95S
RIVERSIDE      PTCLDY    56  42  59 CALM      29.95S
PALM SPRINGS   CLEAR     70  38  31 CALM      29.90R
EL CENTRO NAS  MOSUNNY   64  29  26 W9        29.87S
IMPERIAL       SUNNY     65  31  28 W6        29.85S
BLYTHE         PTSUNNY   68  27  21 CALM      29.88R
NEEDLES        MOSUNNY   69  20  15 CALM      29.91R
$$

NVZ020-UTZ003-221500-
SOUTHERN NEVADA-UTAH

CITY           SKY/WX    TMP DP  RH WIND       PRES   REMARKS
LAS VEGAS      PTSUNNY   63  28  26 SW6       29.99R
SALT LAKE CITY MOSUNNY   52  33  48 SE9       30.14R
$$

NMZ009-TXZ055-221500-
NEW MEXICO-WEST TEXAS

CITY           SKY/WX    TMP DP  RH WIND       PRES   REMARKS
ALBUQUERQUE    SUNNY     44  34  67 N12       30.19S
EL PASO        PTSUNNY   57  33  40 N6        30.14R
$$


........................KEY........................
SKY/WX - SKY CONDITION/WEATHER
TMP    - TEMPERATURE IN FAHRENHEIT
DP     - DEW POINT IN FAHRENHEIT
RH     - RELATIVE HUMIDITY IN PERCENT
WIND   - DIRECTION AND SPEED IN MILES PER HOUR (MPH)
VRB    - VARIABLE WIND DIRECTION
PRES   - MEAN SEA LEVEL PRESSURE IN INCHES OF MERCURY
         F - FALLING PRESSURE   R - RISING PRESSURE
         S - STEADY PRESSURE
VSB    - VISIBILITY IN MILES
HX     - HEAT INDEX IN FAHRENHEIT
WCI    - WIND CHILL INDEX IN FAHRENHEIT
TC     - TEMPERATURE IN CELSIUS WHICH IS ALSO KNOWN AS
         TEMPERATURE IN CENTIGRADE
AFB    - AIR FORCE BASE
         LUKE AFB IS LUKE AIR FORCE BASE
         DAVIS-MONTHAN IS DAVIS-MONTHAN AIR FORCE BASE
NAS    - NAVAL AIR STATION
         EL CENTRO NAS IS EL CENTRO NAVAL AIR STATION
N/A    - NOT AVAILABLE





USA.gov is the U.S. government's official web portal to all federal, state and local government web resources and services.